Chippewa, MI

8:22 PM EDT on May 26, 2017 (GMT -0400)
Chippewa County International

Weather History for KCIU - August, 2012

Change the Weather History Date:

Friday, August 10, 2012

  Actual Average Record
Temperature  
Mean Temperature 63 °F -  
Max Temperature 71 °F 74 °F 82 °F (2007)
Min Temperature 55 °F 52 °F 42 °F (1978)
Degree Days  
Heating Degree Days 2    
Growing Degree Days 13 (Base 50)    
Moisture  
Dew Point 48 °F    
Average Humidity 58    
Maximum Humidity 77    
Minimum Humidity 41    
Precipitation  
Precipitation 0.00 in - - ()
Sea Level Pressure  
Sea Level Pressure 29.96 in    
Wind  
Wind Speed 10 mph (North)    
Max Wind Speed 18 mph    
Max Gust Speed 26 mph    
Visibility 10 miles    
Events      
Averages and records for this station are not official NWS values.
T = Trace of Precipitation, MM = Missing Value Source: NWS Daily Summary

Daily Weather History Graph

Daily Weather History Graph

Search for Another Location

Airport or City:

Trip Planner

Search our weather history database for the weather conditions in past years. The results will help you decide how hot, cold, wet, or windy it might be!

Date:

Astronomy

Aug. 10, 2012 Rise Set
Actual Time 6:31 AM EDT 8:54 PM EDT
Civil Twilight 5:57 AM EDT 9:27 PM EDT
Nautical Twilight 5:15 AM EDT 10:09 PM EDT
Astronomical Twilight 4:28 AM EDT 10:56 PM EDT
Moon 12:15 AM EDT (8/10) 3:39 PM EDT (8/10)
Length of Visible Light 15h 29m
Length of Day
14h 23m
Last Quarter, 42% of the Moon is Illuminated
Aug 10
Last Quarter
Aug 17
New
Aug 24
First Quarter
Aug 31
Full
Sep 8
Last Quarter

Hourly Weather History & Observations

Time (EDT) Temp. Dew Point Humidity Pressure Visibility Wind Dir Wind Speed Gust Speed Precip Events Conditions
12:15 AM 60.8 °F 48.2 °F 63% 30.02 in 10.0 mi NNE 8.1 mph - N/A   Clear
12:35 AM 60.8 °F 48.2 °F 63% 30.02 in 10.0 mi NNE 9.2 mph - N/A   Clear
12:55 AM 60.8 °F 48.2 °F 63% 30.02 in 10.0 mi NNE 8.1 mph - N/A   Clear
1:15 AM 60.8 °F 48.2 °F 63% 30.02 in 10.0 mi NNE 6.9 mph - N/A   Clear
1:35 AM 60.8 °F 48.2 °F 63% 30.01 in 10.0 mi NNE 6.9 mph - N/A   Clear
1:55 AM 59.0 °F 48.2 °F 67% 30.01 in 10.0 mi NNE 6.9 mph - N/A   Clear
2:15 AM 59.0 °F 48.2 °F 67% 30.00 in 10.0 mi NNE 6.9 mph - N/A   Clear
2:35 AM 59.0 °F 48.2 °F 67% 29.99 in 10.0 mi NNE 9.2 mph - N/A   Clear
2:55 AM 57.2 °F 48.2 °F 72% 29.99 in 10.0 mi NNE 8.1 mph - N/A   Clear
3:15 AM 57.2 °F 48.2 °F 72% 29.99 in 10.0 mi North 6.9 mph - N/A   Clear
3:35 AM 57.2 °F 46.4 °F 67% 29.99 in 10.0 mi NNE 8.1 mph - N/A   Clear
3:55 AM 57.2 °F 46.4 °F 67% 30.00 in 10.0 mi NNE 9.2 mph - N/A   Clear
4:15 AM 55.4 °F 46.4 °F 72% 30.00 in 10.0 mi North 8.1 mph - N/A   Clear
4:35 AM 57.2 °F 46.4 °F 67% 29.99 in 10.0 mi North 11.5 mph - N/A   Clear
4:55 AM 57.2 °F 46.4 °F 67% 29.98 in 10.0 mi North 10.4 mph - N/A   Clear
5:15 AM 57.2 °F 46.4 °F 67% 29.99 in 10.0 mi NNE 9.2 mph - N/A   Clear
5:35 AM 55.4 °F 46.4 °F 72% 29.99 in 10.0 mi North 9.2 mph - N/A   Clear
5:55 AM 55.4 °F 46.4 °F 72% 29.99 in 10.0 mi North 6.9 mph - N/A   Clear
6:15 AM 55.4 °F 46.4 °F 72% 30.00 in 10.0 mi North 6.9 mph - N/A   Clear
6:35 AM 55.4 °F 46.4 °F 72% 30.00 in 10.0 mi North 8.1 mph - N/A   Clear
6:55 AM 55.4 °F 48.2 °F 77% 30.00 in 10.0 mi North 9.2 mph - N/A   Clear
7:15 AM 55.4 °F 48.2 °F 77% 30.00 in 10.0 mi North 8.1 mph - N/A   Clear
7:35 AM 55.4 °F 48.2 °F 77% 30.00 in 10.0 mi North 6.9 mph - N/A   Clear
7:55 AM 55.4 °F 48.2 °F 77% 30.01 in 10.0 mi North 9.2 mph - N/A   Clear
8:15 AM 55.4 °F 48.2 °F 77% 30.01 in 10.0 mi North 9.2 mph - N/A   Clear
8:35 AM 55.4 °F 48.2 °F 77% 30.02 in 10.0 mi North 10.4 mph - N/A   Clear
8:55 AM 57.2 °F 48.2 °F 72% 30.02 in 10.0 mi North 12.7 mph - N/A   Clear
9:15 AM 57.2 °F 48.2 °F 72% 30.01 in 10.0 mi North 12.7 mph - N/A   Clear
9:35 AM 59.0 °F 48.2 °F 67% 30.01 in 10.0 mi North 13.8 mph 18.4 mph N/A   Clear
9:55 AM 59.0 °F 48.2 °F 67% 30.01 in 10.0 mi North 12.7 mph - N/A   Clear
10:15 AM 60.8 °F 48.2 °F 63% 30.00 in 10.0 mi North 13.8 mph 18.4 mph N/A   Clear
10:35 AM 62.6 °F 48.2 °F 59% 29.99 in 10.0 mi North 12.7 mph 19.6 mph N/A   Clear
10:55 AM 62.6 °F 48.2 °F 59% 29.98 in 10.0 mi North 16.1 mph 23.0 mph N/A   Clear
11:15 AM 62.6 °F 48.2 °F 59% 29.98 in 10.0 mi North 12.7 mph 19.6 mph N/A   Clear
11:35 AM 64.4 °F 48.2 °F 56% 29.97 in 10.0 mi North 15.0 mph 21.9 mph N/A   Clear
11:55 AM 66.2 °F 48.2 °F 52% 29.97 in 10.0 mi NE 12.7 mph 19.6 mph N/A   Clear
12:15 PM 66.2 °F 46.4 °F 49% 29.97 in 10.0 mi North 15.0 mph - N/A   Clear
12:35 PM 66.2 °F 46.4 °F 49% 29.96 in 10.0 mi NNE 16.1 mph 23.0 mph N/A   Clear
12:55 PM 66.2 °F 46.4 °F 49% 29.95 in 10.0 mi NNE 15.0 mph 26.5 mph N/A   Clear
1:15 PM 66.2 °F 46.4 °F 49% 29.95 in 10.0 mi NNE 17.3 mph 24.2 mph N/A   Clear
1:35 PM 68.0 °F 46.4 °F 46% 29.94 in 10.0 mi NNE 15.0 mph 25.3 mph N/A   Clear
1:55 PM 69.8 °F 46.4 °F 43% 29.94 in 10.0 mi North 18.4 mph 25.3 mph N/A   Clear
2:15 PM 69.8 °F 46.4 °F 43% 29.93 in 10.0 mi NNE 12.7 mph 21.9 mph N/A   Clear
2:35 PM 69.8 °F 48.2 °F 46% 29.93 in 10.0 mi North 16.1 mph - N/A   Clear
2:55 PM 69.8 °F 48.2 °F 46% 29.93 in 10.0 mi North 12.7 mph - N/A   Clear
3:15 PM 69.8 °F 48.2 °F 46% 29.93 in 10.0 mi North 15.0 mph 20.7 mph N/A   Clear
3:35 PM 71.6 °F 48.2 °F 43% 29.92 in 10.0 mi North 16.1 mph - N/A   Clear
3:55 PM 71.6 °F 46.4 °F 41% 29.92 in 10.0 mi North 13.8 mph 20.7 mph N/A   Clear
4:15 PM 71.6 °F 48.2 °F 43% 29.91 in 10.0 mi NNE 18.4 mph 23.0 mph N/A   Clear
4:35 PM 71.6 °F 48.2 °F 43% 29.91 in 10.0 mi North 11.5 mph 19.6 mph N/A   Clear
4:55 PM 71.6 °F 46.4 °F 41% 29.91 in 10.0 mi North 16.1 mph 23.0 mph N/A   Partly Cloudy
5:15 PM 71.6 °F 46.4 °F 41% 29.91 in 10.0 mi North 15.0 mph - N/A   Clear
5:35 PM 71.6 °F 46.4 °F 41% 29.91 in 10.0 mi North 17.3 mph 23.0 mph N/A   Partly Cloudy
5:55 PM 71.6 °F 46.4 °F 41% 29.91 in 10.0 mi North 15.0 mph 18.4 mph N/A   Clear
6:15 PM 71.6 °F 48.2 °F 43% 29.91 in 10.0 mi North 13.8 mph 18.4 mph N/A   Clear
6:35 PM 71.6 °F 48.2 °F 43% 29.90 in 10.0 mi North 15.0 mph 20.7 mph N/A   Clear
6:55 PM 71.6 °F 48.2 °F 43% 29.91 in 10.0 mi North 17.3 mph 20.7 mph N/A   Clear
7:15 PM 71.6 °F 48.2 °F 43% 29.91 in 10.0 mi North 12.7 mph 19.6 mph N/A   Clear
7:35 PM 69.8 °F 48.2 °F 46% 29.91 in 10.0 mi NNW 9.2 mph - N/A   Clear
7:55 PM 69.8 °F 48.2 °F 46% 29.91 in 10.0 mi NNW 8.1 mph - N/A   Clear
8:15 PM 69.8 °F 50.0 °F 49% 29.91 in 10.0 mi NNW 9.2 mph - N/A   Clear
8:35 PM 69.8 °F 50.0 °F 49% 29.91 in 10.0 mi North 8.1 mph - N/A   Partly Cloudy
9:15 PM 68.0 °F 50.0 °F 52% 29.92 in 10.0 mi North 6.9 mph - N/A   Overcast
9:35 PM 68.0 °F 51.8 °F 56% 29.92 in 10.0 mi NNW 10.4 mph - N/A   Overcast
9:55 PM 66.2 °F 51.8 °F 60% 29.92 in 10.0 mi North 10.4 mph - N/A   Overcast
10:15 PM 66.2 °F 50.0 °F 56% 29.92 in 10.0 mi NNW 9.2 mph - N/A   Overcast
10:35 PM 66.2 °F 51.8 °F 60% 29.91 in 10.0 mi NNW 10.4 mph - N/A   Overcast
10:55 PM 66.2 °F 51.8 °F 60% 29.91 in 10.0 mi NNW 10.4 mph - N/A   Overcast
11:15 PM 66.2 °F 51.8 °F 60% 29.91 in 10.0 mi North 9.2 mph - N/A   Overcast
11:35 PM 66.2 °F 51.8 °F 60% 29.90 in 10.0 mi North 8.1 mph - N/A   Overcast
11:55 PM 66.2 °F 51.8 °F 60% 29.90 in 10.0 mi NNW 9.2 mph - N/A   Overcast